Retour au catalogue

FENGYUN 1C DEB

ActifSSO
NORAD 36197·DEBRIS·🇨🇳 China

Lancé May 10, 1999 depuis Taiyuan Satellite Launch Center

Loading…

Prochains Passages (prochaines 24 heures)

TLE

PériméSource: Space-Track

Époque: Aug 29, 2026, 00:02 UTC

1 36197U 99025DTW 26241.00207939  .00002587  00000-0  10094-2 0  9994
2 36197  98.6920 315.0916 0052182 136.1483 224.3860 14.29757025653428

Suivez FENGYUN 1C DEB en temps réel avec AllMySat

Download on the App Store